Ketchikan, AK

8:03 AM AKDT on October 16, 2018 (GMT -0800)
Ketchikan International

Weather History for PAKT - September, 2018

Change the Weather History Date:

Friday, September 14, 2018

  Actual Average Record
Temperature  
Mean Temperature 54 °F -  
Max Temperature 61 °F 61 °F 72 °F (1956)
Min Temperature 48 °F 46 °F 32 °F (1992)
Degree Days  
Heating Degree Days 11    
Growing Degree Days 4 (Base 50)    
Moisture  
Dew Point 38 °F    
Average Humidity 57    
Maximum Humidity 77    
Minimum Humidity 36    
Precipitation  
Precipitation 0.00 in - - ()
Sea Level Pressure  
Sea Level Pressure 29.96 in    
Wind  
Wind Speed 4 mph (WNW)    
Max Wind Speed 7 mph    
Max Gust Speed -    
Visibility 10 miles    
Events      
Averages and records for this station are not official NWS values.
T = Trace of Precipitation, MM = Missing Value Source: NWS Daily Summary

Daily Weather History Graph

Daily Weather History Graph

Search for Another Location

Airport or City:

Astronomy

Sep. 14, 2018 Rise Set
Actual Time 6:17 AM AKDT 7:05 PM AKDT
Civil Twilight 5:40 AM AKDT 7:42 PM AKDT
Nautical Twilight 4:55 AM AKDT 8:27 PM AKDT
Astronomical Twilight 4:06 AM AKDT 9:15 PM AKDT
Moon 12:31 PM AKDT (9/14) 9:35 PM AKDT (9/14)
Length of Visible Light 14h 02m
Length of Day
12h 48m
Waxing Crescent, 29% of the Moon is Illuminated
Sep 14
Waxing Crescent
Sep 16
First Quarter
Sep 24
Full
Oct 2
Last Quarter
Oct 8
New

Hourly Weather History & Observations

Time (AKDT) Temp. Dew Point Humidity Pressure Visibility Wind Dir Wind Speed Gust Speed Precip Events Conditions
12:53 AM 51.1 °F 42.1 °F 71% 29.98 in 10.0 mi West 3.5 mph - N/A   Overcast
1:53 AM 50.0 °F 42.1 °F 74% 29.98 in 10.0 mi West 3.5 mph - N/A   Overcast
2:53 AM 51.1 °F 42.1 °F 71% 29.98 in 10.0 mi North 4.6 mph - N/A   Overcast
3:53 AM 48.9 °F 42.1 °F 77% 29.98 in 10.0 mi SE 3.5 mph - N/A   Overcast
4:53 AM 51.1 °F 39.9 °F 66% 29.97 in 10.0 mi SSW 3.5 mph - N/A   Overcast
5:53 AM 52.0 °F 39.0 °F 61% 29.97 in 10.0 mi South 5.8 mph - N/A   Overcast
6:07 AM 52.0 °F 37.9 °F 59% 29.96 in 10.0 mi South 4.6 mph - N/A   Overcast
6:53 AM 51.8 °F 37.4 °F 58% 29.97 in 10.0 mi Variable 3.5 mph - N/A   Overcast
7:53 AM 51.8 °F 39.2 °F 62% 29.98 in 10.0 mi Calm Calm - N/A   Overcast
8:53 AM 53.6 °F 41.0 °F 62% 29.98 in 10.0 mi WNW 3.5 mph - N/A   Overcast
9:53 AM 55.4 °F 39.2 °F 54% 29.97 in 10.0 mi Calm Calm - N/A   Overcast
10:53 AM 57.9 °F 37.9 °F 47% 29.97 in 10.0 mi North 4.6 mph - N/A   Overcast
11:53 AM 57.2 °F 37.4 °F 48% 29.97 in 10.0 mi Variable 3.5 mph - N/A   Overcast
12:53 PM 57.9 °F 33.1 °F 39% 29.96 in 10.0 mi Calm Calm - N/A   Overcast
1:53 PM 59.0 °F 34.0 °F 39% 29.95 in 10.0 mi Variable 3.5 mph - N/A   Overcast
2:53 PM 60.1 °F 33.1 °F 36% 29.95 in 10.0 mi NNW 6.9 mph - N/A   Overcast
3:53 PM 59.0 °F 36.0 °F 42% 29.95 in 10.0 mi NNW 6.9 mph - N/A   Mostly Cloudy
4:53 PM 57.9 °F 37.0 °F 46% 29.95 in 10.0 mi NW 6.9 mph - N/A   Mostly Cloudy
5:53 PM 55.9 °F 39.0 °F 53% 29.94 in 10.0 mi NW 4.6 mph - N/A   Mostly Cloudy
6:53 PM 54.0 °F 37.9 °F 55% 29.94 in 10.0 mi WNW 4.6 mph - N/A   Overcast
7:53 PM 52.0 °F 41.0 °F 66% 29.95 in 10.0 mi Calm Calm - N/A   Overcast
8:53 PM 51.1 °F 42.1 °F 71% 29.96 in 10.0 mi Variable 3.5 mph - N/A   Overcast
9:53 PM 50.0 °F 42.1 °F 74% 29.97 in 10.0 mi Variable 3.5 mph - N/A   Overcast
10:53 PM 53.1 °F 34.0 °F 48% 29.97 in 10.0 mi WNW 4.6 mph - N/A   Overcast
11:53 PM 52.0 °F 30.9 °F 45% 29.97 in 10.0 mi Calm Calm - N/A   Partly Cloudy